1506225600.89,64533,13.63,73814.8,-1.17,-1.95,-1.95,0,*50
1506225602.14,64534,13.63,73814.0,-1.17,-2.03,-2.03,0,*57
1506225603.38,64535,13.63,73816.8,-1.17,-2.07,-2.03,0,*52
1506225604.64,64536,13.63,73812.0,-1.15,-1.99,-1.99,0,*57
1506225605.91,64537,13.63,73814.3,-1.19,-2.03,-2.03,0,*5A
1506225607.16,64538,13.63,73814.8,-1.17,-2.03,-2.07,0,*5F
1506225608.4,64539,13.56,73812.5,-1.17,-2.07,-2.07,0,*5A
1506225609.65,64540,13.63,73814.0,-1.17,-2.03,-2.03,0,*54
1506225610.88,64541,13.63,73814.5,-1.17,-1.95,-1.95,0,*55
1506225612.14,64542,13.63,73814.5,-1.19,-1.95,-2.03,0,*54
1506225613.38,64543,13.63,73816.5,-1.17,-1.95,-1.95,0,*57
1506225614.65,64544,13.63,73812.3,-1.19,-2.03,-2.03,0,*5E
1506225615.92,64545,13.63,73812.0,-1.19,-2.03,-2.03,0,*5F
1506225617.18,64546,13.56,73812.5,-1.19,-1.95,-2.03,0,*50
1506225618.45,64547,13.56,73814.3,-1.19,-1.95,-2.03,0,*51
1506225619.69,64548,13.63,73814.8,-1.17,-2.03,-2.03,0,*5C
1506225620.96,64549,13.63,73814.3,-1.19,-1.95,-2.07,0,*5B
1506225622.23,64550,13.63,73814.5,-1.19,-2.03,-2.03,0,*5B
1506225623.47,64551,13.63,73814.8,-1.17,-1.95,-2.03,0,*58
1506225624.7,64552,13.63,73812.3,-1.17,-1.95,-1.95,0,*57
1506225625.97,64553,13.63,73814.0,-1.19,-1.95,-2.03,0,*54
1506225627.24,64554,13.56,73812.0,-1.19,-2.03,-2.03,0,*5F
1506225628.51,64555,13.56,73814.0,-1.19,-2.03,-2.07,0,*5A
1506225629.75,64556,13.56,73812.0,-1.19,-2.15,-2.03,0,*5A
1506225631.02,64557,13.63,73814.8,-1.19,-2.03,-2.03,0,*5C
1506225632.29,64558,13.63,73814.3,-1.19,-2.07,-2.03,0,*57
1506225633.55,64559,13.56,73814.0,-1.19,-1.95,-2.03,0,*5E
1506225634.81,64560,13.63,73814.8,-1.19,-1.95,-1.95,0,*58
1506225636.05,64561,13.63,73814.8,-1.17,-1.95,-1.95,0,*57
1506225637.31,64562,13.63,73814.8,-1.19,-1.95,-2.03,0,*56
1506225638.58,64563,13.63,73818.8,-1.19,-1.95,-2.03,0,*57
1506225639.83,64564,13.63,73812.3,-1.21,-1.99,-2.07,0,*53
1506225641.09,64565,13.63,73814.8,-1.19,-1.95,-1.95,0,*5D
1506225642.35,64566,13.63,73814.5,-1.19,-1.95,-2.03,0,*52
1506225643.62,64567,13.56,73812.3,-1.19,-2.03,-2.03,0,*5F
1506225644.9,64568,13.63,73812.8,-1.19,-2.03,-2.07,0,*54
1506225646.14,64569,13.63,73816.5,-1.19,-2.15,-2.07,0,*52
1506225647.41,64570,13.63,73818.3,-1.19,-2.03,-2.03,0,*59
1506225648.66,64571,13.63,73814.3,-1.21,-2.07,-2.11,0,*54
1506225649.93,64572,13.63,73812.8,-1.19,-2.07,-2.07,0,*5B
1506225651.18,64573,13.63,73816.3,-1.21,-2.07,-2.11,0,*56
1506225652.42,64574,13.56,73812.8,-1.21,-2.07,-2.11,0,*51
1506225653.67,64575,13.63,73814.8,-1.21,-2.07,-2.07,0,*57
1506225654.91,64576,13.63,73816.8,-1.19,-2.15,-2.07,0,*5C
1506225656.18,64577,13.56,73814.5,-1.19,-1.95,-2.03,0,*52
1506225657.45,64578,13.63,73816.8,-1.19,-2.03,-2.03,0,*51
1506225658.72,64579,13.63,73814.3,-1.19,-2.07,-2.03,0,*54
1506225659.99,64580,13.56,73812.5,-1.19,-2.03,-2.03,0,*56
1506225661.25,64581,13.63,73816.8,-1.19,-2.03,-1.95,0,*5B
1506225662.5,64582,13.56,73814.0,-1.21,-2.07,-2.07,0,*5F
1506225663.76,64583,13.56,73812.0,-1.21,-1.99,-2.07,0,*5A
1506225665.03,64584,13.63,73814.0,-1.19,-2.03,-2.07,0,*56
1506225666.3,64585,13.56,73812.3,-1.19,-2.03,-2.03,0,*53
1506225667.55,64586,13.63,73816.5,-1.21,-1.99,-1.99,0,*5B
1506225668.8,64587,13.63,73816.0,-1.21,-2.07,-2.07,0,*5A
1506225670.05,64588,13.56,73812.3,-1.21,-1.99,-2.07,0,*51
1506225671.32,64589,13.56,73812.8,-1.19,-1.95,-2.03,0,*53
1506225672.57,64590,13.63,73816.5,-1.21,-2.07,-2.07,0,*5C
1506225673.83,64591,13.63,73818.3,-1.19,-1.95,-1.95,0,*56
1506225675.09,64592,13.56,73814.5,-1.19,-1.95,-2.03,0,*59
1506225676.34,64593,13.56,73814.0,-1.21,-1.99,-2.11,0,*5C
1506225677.61,64594,13.63,73816.5,-1.19,-2.07,-2.03,0,*57
1506225678.87,64595,13.56,73808.8,-1.19,-1.95,-1.95,0,*52
1506225680.14,64596,13.63,73816.3,-1.19,-1.95,-1.99,0,*5D
1506225681.39,64597,13.63,73816.0,-1.21,-2.07,-2.11,0,*5C
1506225682.63,64598,13.56,73812.0,-1.21,-2.07,-2.11,0,*53
1506225683.88,64599,13.63,73818.0,-1.21,-2.07,-2.07,0,*55
1506225685.13,64600,13.63,73816.8,-1.21,-2.07,-2.07,0,*56
1506225686.38,64601,13.56,73812.8,-1.21,-1.99,-2.11,0,*54
1506225687.65,64602,13.63,73818.8,-1.19,-2.03,-2.07,0,*5B
1506225688.91,64603,13.63,73818.5,-1.19,-2.03,-1.95,0,*52
1506225690.16,64604,13.56,73812.8,-1.21,-2.07,-1.99,0,*56
1506225691.41,64605,13.56,73814.8,-1.21,-2.07,-1.99,0,*57
1506225692.67,64606,13.56,73812.0,-1.21,-2.11,-2.07,0,*57
1506225693.92,64607,13.63,73814.5,-1.21,-2.07,-1.99,0,*55
1506225695.17,64608,13.63,73814.8,-1.21,-1.99,-2.07,0,*5A
1506225696.42,64609,13.63,73818.5,-1.21,-2.07,-2.07,0,*5F
1506225697.67,64610,13.56,73812.0,-1.21,-2.07,-1.99,0,*53
1506225698.91,64611,13.63,73814.3,-1.21,-2.07,-2.11,0,*51
1506225700.19,64612,13.63,73816.3,-1.23,-2.03,-2.11,0,*54
1506225701.44,64613,13.56,73814.0,-1.21,-1.99,-2.07,0,*50
1506225702.7,64614,13.63,73818.5,-1.19,-2.03,-1.95,0,*54
1506225703.95,64615,13.63,73818.5,-1.21,-2.07,-2.07,0,*52
1506225705.2,64616,13.56,73812.5,-1.21,-2.07,-2.07,0,*51
1506225706.45,64617,13.63,73818.0,-1.21,-2.07,-2.11,0,*57
1506225707.72,64618,13.63,73816.3,-1.23,-2.11,-2.11,0,*5D
1506225708.97,64619,13.63,73816.5,-1.23,-2.11,-2.15,0,*58
1506225710.22,64620,13.63,73818.5,-1.21,-2.07,-2.07,0,*54
1506225711.47,64621,13.63,73816.5,-1.21,-1.99,-1.99,0,*55
1506225712.73,64622,13.63,73816.3,-1.21,-1.99,-1.99,0,*56
1506225713.98,64623,13.56,73812.8,-1.21,-1.99,-1.99,0,*57
1506225715.23,64624,13.63,73816.0,-1.21,-1.99,-1.99,0,*50
1506225716.49,64625,13.63,73814.8,-1.21,-1.99,-1.99,0,*51
1506225717.76,64626,13.63,73814.3,-1.23,-2.03,-2.03,0,*50
1506225719.01,64627,13.63,73816.8,-1.21,-1.99,-1.99,0,*53
1506225720.26,64628,13.56,73812.8,-1.21,-1.99,-1.99,0,*5C
1506225721.52,64629,13.63,73814.3,-1.21,-1.99,-1.99,0,*5D
1506225722.77,64630,13.63,73814.3,-1.21,-1.99,-1.99,0,*55
1506225724.02,64631,13.63,73814.5,-1.21,-1.95,-1.99,0,*58
1506225725.25,64632,13.63,73816.3,-1.21,-1.91,-1.95,0,*53
1506225726.49,64633,13.63,73816.3,-1.21,-1.95,-1.95,0,*56
1506225727.72,64634,13.63,73818.0,-1.21,-1.95,-1.95,0,*51
1506225728.99,64635,13.63,73816.8,-1.19,-1.91,-1.91,0,*5B
1506225730.24,64636,13.63,73814.3,-1.21,-2.07,-1.99,0,*57
1506225731.48,64637,13.63,73814.5,-1.21,-1.95,-1.99,0,*5E
1506225732.73,64638,13.63,73818.3,-1.21,-1.95,-1.99,0,*51
1506225733.97,64639,13.63,73818.3,-1.21,-1.95,-1.99,0,*50
1506225735.24,64640,13.63,73818.8,-1.19,-1.91,-1.95,0,*5D
1506225736.48,64641,13.63,73814.8,-1.21,-1.95,-1.99,0,*5F
1506225737.73,64642,13.63,73818.3,-1.21,-1.95,-1.99,0,*5C
1506225738.99,64643,13.63,73816.8,-1.19,-1.91,-2.03,0,*52
1506225740.25,64644,13.63,73818.3,-1.21,-1.99,-2.07,0,*52
1506225741.5,64645,13.63,73816.8,-1.21,-1.99,-1.99,0,*57
1506225742.75,64646,13.63,73816.5,-1.21,-1.99,-1.99,0,*54
1506225744.02,64647,13.63,73818.5,-1.19,-1.95,-2.03,0,*52
1506225745.26,64648,13.63,73818.5,-1.21,-1.95,-1.99,0,*56
1506225746.51,64649,13.56,73814.8,-1.21,-1.95,-1.99,0,*57
1506225747.75,64650,13.63,73816.3,-1.21,-1.95,-1.99,0,*5F
1506225749.01,64651,13.63,73818.8,-1.19,-1.91,-1.95,0,*5D
1506225750.25,64652,13.56,73812.5,-1.21,-1.95,-1.91,0,*55
1506225751.49,64653,13.63,73818.5,-1.21,-1.95,-1.95,0,*50
1506225752.74,64654,13.63,73814.0,-1.21,-1.99,-1.99,0,*57
1506225754.0,64655,13.63,73816.5,-1.19,-1.95,-1.95,0,*5D
1506225755.25,64656,13.63,73818.8,-1.21,-1.99,-1.99,0,*55
1506225756.51,64657,13.63,73814.8,-1.19,-1.91,-1.95,0,*5B
1506225757.77,64658,13.63,73816.0,-1.19,-1.91,-1.95,0,*54
1506225759.02,64659,13.63,73818.8,-1.21,-1.95,-1.99,0,*56
1506225760.28,64660,13.63,73816.0,-1.19,-1.95,-1.95,0,*5B
1506225761.53,64661,13.63,73820.5,-1.21,-1.99,-1.99,0,*51
1506225762.78,64662,13.63,73814.8,-1.21,-1.99,-1.99,0,*52
1506225764.03,64663,13.56,73814.0,-1.21,-1.99,-1.95,0,*5F
1506225765.26,64664,13.63,73816.8,-1.21,-1.95,-1.95,0,*54
1506225766.5,64665,13.63,73816.8,-1.21,-1.95,-1.95,0,*55
1506225767.74,64666,13.63,73818.0,-1.21,-1.95,-1.91,0,*52
1506225768.98,64667,13.63,73818.5,-1.21,-1.95,-1.95,0,*57
1506225770.24,64668,13.63,73814.8,-1.19,-1.91,-1.91,0,*53
1506225771.48,64669,13.63,73818.8,-1.21,-1.95,-1.91,0,*5D
1506225772.72,64670,13.63,73818.5,-1.21,-1.95,-1.91,0,*55
1506225773.99,64671,13.63,73818.8,-1.19,-1.87,-1.91,0,*5C
1506225775.26,64672,13.63,73816.0,-1.19,-1.91,-1.91,0,*58
1506225776.53,64673,13.63,73816.8,-1.19,-1.87,-1.87,0,*59
1506225777.79,64674,13.63,73816.5,-1.19,-1.91,-1.91,0,*5E
1506225779.06,64675,13.63,73816.5,-1.19,-1.91,-1.91,0,*5F
1506225780.32,64676,13.63,73818.3,-1.19,-1.91,-1.91,0,*5C
1506225781.59,64677,13.63,73816.3,-1.19,-1.91,-1.91,0,*5D
1506225782.85,64678,13.63,73818.0,-1.19,-1.91,-1.91,0,*52
1506225784.12,64679,13.63,73818.0,-1.19,-1.91,-1.91,0,*53
1506225785.39,64680,13.63,73816.8,-1.19,-1.91,-1.91,0,*55
1506225786.65,64681,13.63,73822.3,-1.19,-1.87,-1.91,0,*53
1506225787.92,64682,13.63,73818.3,-1.19,-1.91,-1.91,0,*57
1506225789.19,64683,13.63,73814.3,-1.19,-1.87,-1.91,0,*51
1506225790.46,64684,13.63,73816.0,-1.19,-1.87,-1.91,0,*56
1506225791.72,64685,13.63,73812.3,-1.19,-1.91,-1.87,0,*57
1506225792.99,64686,13.63,73818.3,-1.19,-1.91,-1.87,0,*54
1506225794.23,64687,13.63,73812.5,-1.21,-1.91,-1.91,0,*59
1506225795.5,64688,13.56,73812.5,-1.19,-1.87,-1.87,0,*5D
1506225796.74,64689,13.63,73818.8,-1.19,-1.87,-1.79,0,*5D
1506225797.98,64690,13.63,73816.0,-1.17,-1.87,-1.87,0,*5A
1506225799.24,64691,13.63,73818.5,-1.15,-1.87,-1.83,0,*5D
1506225800.48,64692,13.63,73818.3,-1.17,-1.87,-1.87,0,*58
1506225801.72,64693,13.63,73818.5,-1.17,-1.87,-1.91,0,*5E
1506225802.96,64694,13.63,73816.5,-1.17,-1.91,-1.91,0,*5E
1506225804.21,64695,13.63,73818.8,-1.15,-1.87,-1.87,0,*5D
1506225805.45,64696,13.63,73816.5,-1.17,-1.87,-1.91,0,*5B
1506225806.69,64697,13.56,73814.5,-1.17,-1.91,-1.91,0,*5D
1506225807.96,64698,13.63,73820.8,-1.19,-1.91,-1.91,0,*5C
1506225809.2,64699,13.56,73814.5,-1.17,-1.87,-1.91,0,*54
1506225810.44,64700,13.63,73818.3,-1.17,-1.91,-1.87,0,*55
1506225811.68,64701,13.63,73816.0,-1.17,-1.91,-1.91,0,*53
1506225812.92,64702,13.56,73812.8,-1.17,-1.87,-1.91,0,*57
1506225814.16,64703,13.63,73816.0,-1.17,-1.87,-1.87,0,*51
1506225815.4,64704,13.63,73818.5,-1.17,-1.91,-1.91,0,*56
1506225816.64,64705,13.63,73816.3,-1.17,-1.91,-1.91,0,*57
1506225817.88,64706,13.63,73816.0,-1.17,-1.91,-1.91,0,*54
1506225819.12,64707,13.63,73816.5,-1.17,-1.87,-1.91,0,*52
1506225820.36,64708,13.63,73818.0,-1.17,-1.91,-1.87,0,*5D
1506225821.6,64709,13.63,73816.3,-1.17,-1.91,-1.91,0,*5B
1506225822.85,64710,13.63,73816.8,-1.15,-1.87,-1.83,0,*55
1506225824.09,64711,13.63,73818.3,-1.17,-1.91,-1.91,0,*52
1506225825.33,64712,13.63,73816.5,-1.17,-1.91,-1.91,0,*51
1506225826.57,64713,13.63,73818.3,-1.17,-1.91,-1.91,0,*50
1506225827.81,64714,13.63,73814.5,-1.17,-1.91,-1.91,0,*57
1506225829.06,64715,13.63,73818.8,-1.15,-1.87,-1.87,0,*54
1506225830.3,64716,13.63,73818.8,-1.17,-1.95,-1.91,0,*51
1506225831.54,64717,13.63,73814.5,-1.17,-1.91,-1.91,0,*54
1506225832.79,64718,13.63,73816.3,-1.15,-1.87,-1.87,0,*59
1506225834.04,64719,13.63,73816.8,-1.15,-1.83,-1.87,0,*5C
1506225835.28,64720,13.63,73818.8,-1.17,-1.91,-1.91,0,*50
1506225836.53,64721,13.63,73818.8,-1.15,-1.87,-1.87,0,*53
1506225837.78,64722,13.63,73816.8,-1.15,-1.91,-1.87,0,*57
1506225839.02,64723,13.63,73818.0,-1.17,-1.87,-1.87,0,*53
1506225840.28,64724,13.63,73818.3,-1.15,-1.87,-1.87,0,*56
1506225841.52,64725,13.63,73816.5,-1.17,-1.91,-1.91,0,*55
1506225842.75,64726,13.63,73818.5,-1.17,-1.91,-1.91,0,*56
1506225843.99,64727,13.63,73816.8,-1.17,-1.91,-1.91,0,*57
1506225845.24,64728,13.63,73818.5,-1.17,-1.87,-1.83,0,*5C
1506225846.47,64729,13.63,73816.8,-1.17,-1.91,-1.91,0,*59
1506225847.71,64730,13.63,73816.3,-1.17,-1.95,-1.91,0,*55
1506225848.95,64731,13.63,73818.3,-1.17,-1.95,-1.91,0,*54
1506225850.2,64732,13.63,73816.0,-1.15,-1.91,-1.87,0,*56
1506225851.44,64733,13.63,73818.0,-1.17,-1.91,-1.91,0,*52
1506225852.67,64734,13.63,73816.5,-1.17,-1.91,-1.95,0,*51
1506225853.9,64735,13.63,73818.5,-1.17,-1.95,-1.95,0,*54
1506225855.15,64736,13.63,73816.5,-1.15,-1.95,-1.87,0,*56
1506225856.39,64737,13.63,73818.5,-1.17,-1.91,-1.87,0,*51
1506225857.65,64738,13.63,73820.0,-1.15,-1.87,-1.83,0,*5F
1506225858.89,64739,13.63,73818.5,-1.17,-1.87,-1.87,0,*58
1506225860.14,64740,13.63,73818.5,-1.15,-1.83,-1.87,0,*50
1506225861.38,64741,13.63,73816.8,-1.17,-1.91,-1.91,0,*57
1506225862.63,64742,13.63,73816.5,-1.15,-1.87,-1.87,0,*56
1506225863.87,64743,13.63,73816.3,-1.17,-1.91,-1.91,0,*55
1506225865.12,64744,13.63,73816.3,-1.15,-1.87,-1.83,0,*54
1506225866.36,64745,13.63,73816.0,-1.17,-1.91,-1.91,0,*53
1506225867.6,64746,13.63,73822.3,-1.17,-1.91,-1.87,0,*57
1506225868.84,64747,13.63,73814.0,-1.17,-1.87,-1.91,0,*56
1506225870.1,64748,13.63,73816.0,-1.15,-1.87,-1.83,0,*58
1506225871.33,64749,13.63,73816.0,-1.17,-1.91,-1.91,0,*5F
1506225872.59,64750,13.63,73822.0,-1.15,-1.87,-1.87,0,*55
1506225873.84,64751,13.63,73816.3,-1.15,-1.87,-1.87,0,*54
1506225875.07,64752,13.63,73818.5,-1.17,-1.91,-1.95,0,*51
1506225876.31,64753,13.63,73818.0,-1.17,-1.87,-1.95,0,*57
1506225877.55,64754,13.63,73816.0,-1.17,-1.95,-2.03,0,*5F
1506225878.78,64755,13.63,73816.8,-1.17,-1.95,-1.95,0,*52
1506225880.01,64756,13.63,73818.0,-1.17,-1.95,-1.95,0,*51
1506225881.24,64757,13.63,73822.8,-1.17,-1.95,-1.95,0,*50
1506225882.49,64758,13.63,73818.3,-1.15,-1.91,-1.91,0,*5D
1506225883.74,64759,13.63,73820.5,-1.15,-1.91,-1.91,0,*5C
1506225884.97,64760,13.63,73818.0,-1.17,-1.95,-1.95,0,*54
1506225886.21,64761,13.63,73818.0,-1.17,-1.95,-1.91,0,*51
1506225887.45,64762,13.63,73816.5,-1.17,-1.95,-1.91,0,*52
1506225888.7,64763,13.63,73820.3,-1.15,-1.87,-1.87,0,*55
1506225889.96,64764,13.63,73820.5,-1.15,-1.83,-1.83,0,*52
1506225891.21,64765,13.63,73816.8,-1.15,-1.87,-1.87,0,*53
1506225892.46,64766,13.63,73818.8,-1.15,-1.87,-1.87,0,*50
1506225893.7,64767,13.63,73816.0,-1.17,-1.91,-1.91,0,*53
1506225894.94,64768,13.63,73816.8,-1.17,-1.87,-1.87,0,*5C
1506225896.19,64769,13.63,73816.5,-1.15,-1.87,-1.87,0,*5F
1506225897.45,64770,13.63,73818.5,-1.15,-1.87,-1.87,0,*57
1506225898.7,64771,13.63,73818.0,-1.15,-1.87,-1.83,0,*52
1506225899.94,64772,13.63,73816.8,-1.17,-1.91,-1.91,0,*57
1506225901.18,64773,13.63,73816.3,-1.17,-1.91,-1.91,0,*56
1506225902.43,64774,13.63,73816.0,-1.15,-1.87,-1.87,0,*53
1506225903.67,64775,13.63,73820.0,-1.17,-1.91,-1.91,0,*50
1506225904.92,64776,13.63,73816.0,-1.15,-1.87,-1.87,0,*51
1506225906.17,64777,13.63,73820.0,-1.15,-1.87,-1.87,0,*50
1506225907.43,64778,13.63,73820.8,-1.15,-1.87,-1.87,0,*5F
1506225908.68,64779,13.63,73818.0,-1.15,-1.87,-1.87,0,*5E
1506225909.93,64780,13.63,73818.3,-1.15,-1.87,-1.87,0,*58
1506225911.18,64781,13.63,73820.3,-1.15,-1.87,-1.87,0,*59
1506225912.44,64782,13.63,73822.5,-1.15,-1.83,-1.83,0,*5A
1506225913.69,64783,13.63,73816.8,-1.15,-1.87,-1.83,0,*5F
1506225914.94,64784,13.63,73816.0,-1.15,-1.87,-1.87,0,*5C
1506225916.2,64785,13.63,73820.3,-1.15,-1.87,-1.87,0,*5D
1506225917.45,64786,13.63,73818.3,-1.15,-1.83,-1.87,0,*5A
1506225918.7,64787,13.63,73818.8,-1.15,-1.87,-1.91,0,*58
1506225919.93,64788,13.63,73820.3,-1.17,-1.91,-1.95,0,*56
1506225921.19,64789,13.63,73818.0,-1.15,-1.87,-1.91,0,*56
1506225922.44,64790,13.63,73818.5,-1.15,-1.87,-1.87,0,*59
1506225923.69,64791,13.63,73818.0,-1.15,-1.83,-1.87,0,*5C
1506225924.93,64792,13.63,73812.5,-1.17,-1.91,-1.91,0,*59
1506225926.18,64793,13.63,73818.0,-1.15,-1.83,-1.83,0,*5A
1506225927.44,64794,13.63,73818.3,-1.15,-1.87,-1.87,0,*5D
1506225928.68,64795,13.63,73816.5,-1.17,-1.87,-1.91,0,*59
1506225929.93,64796,13.63,73820.3,-1.15,-1.87,-1.83,0,*5B
1506225931.18,64797,13.63,73822.3,-1.15,-1.87,-1.87,0,*5E
1506225932.44,64798,13.63,73818.5,-1.15,-1.87,-1.83,0,*55
1506225933.69,64799,13.63,73814.3,-1.15,-1.83,-1.83,0,*50
1506225934.94,64800,13.63,73816.8,-1.15,-1.87,-1.87,0,*5F
1506225936.22,64801,13.63,73816.8,-1.13,-1.87,-1.83,0,*5C
1506225937.47,64802,13.63,73816.0,-1.15,-1.83,-1.83,0,*5D
1506225938.75,64803,13.63,73818.3,-1.13,-1.87,-1.83,0,*5E
1506225939.97,64804,13.63,73816.8,-1.15,-1.75,-1.87,0,*56
1506225941.23,64805,13.63,73818.3,-1.15,-1.83,-1.87,0,*5E
1506225942.48,64806,13.63,73820.3,-1.15,-1.83,-1.83,0,*59
1506225943.73,64807,13.63,73822.0,-1.13,-1.83,-1.75,0,*57
1506225944.98,64808,13.63,73818.0,-1.13,-1.83,-1.75,0,*58
1506225946.26,64809,13.63,73818.3,-1.13,-1.83,-1.87,0,*54
1506225947.48,64810,13.63,73816.0,-1.13,-1.75,-1.75,0,*58
1506225948.73,64811,13.63,73820.0,-1.13,-1.83,-1.75,0,*50
1506225949.96,64812,13.63,73818.0,-1.11,-1.83,-1.79,0,*5D
1506225951.18,64813,13.63,73822.5,-1.13,-1.75,-1.75,0,*5B
1506225952.43,64814,13.63,73818.3,-1.13,-1.75,-1.83,0,*55
1506225953.65,64815,13.63,73818.8,-1.13,-1.75,-1.75,0,*5D
1506225954.9,64816,13.63,73820.0,-1.13,-1.75,-1.83,0,*57
1506225956.15,64817,13.63,73818.8,-1.13,-1.75,-1.83,0,*56
1506225957.4,64818,13.63,73818.0,-1.13,-1.83,-1.75,0,*59
1506225958.63,64819,13.63,73820.3,-1.13,-1.71,-1.71,0,*51
1506225959.84,64820,13.63,73818.8,-1.11,-1.71,-1.79,0,*51
1506225961.06,64821,13.63,73820.8,-1.13,-1.75,-1.71,0,*5E
1506225962.32,64822,13.63,73820.0,-1.13,-1.83,-1.75,0,*50
1506225963.52,64823,13.63,73820.8,-1.11,-1.67,-1.71,0,*5D
1506225964.72,64824,13.63,73818.3,-1.11,-1.71,-1.67,0,*5A
1506225965.94,64825,13.63,73822.0,-1.13,-1.75,-1.75,0,*5E
1506225967.15,64826,13.63,73818.8,-1.11,-1.71,-1.71,0,*5F
1506225968.38,64827,13.63,73818.8,-1.13,-1.75,-1.71,0,*58
1506225969.59,64828,13.63,73820.5,-1.11,-1.71,-1.71,0,*51
1506225970.78,64829,13.63,73818.3,-1.11,-1.75,-1.75,0,*50
1506225971.99,64830,13.63,73820.3,-1.11,-1.71,-1.71,0,*58
1506225973.22,64831,13.63,73820.8,-1.13,-1.71,-1.75,0,*5F
1506225974.42,64832,13.63,73822.5,-1.11,-1.71,-1.71,0,*5A
1506225975.63,64833,13.63,73818.5,-1.11,-1.67,-1.67,0,*5B
1506225976.83,64834,13.63,73818.0,-1.11,-1.71,-1.71,0,*5C
1506225978.03,64835,13.63,73818.3,-1.11,-1.79,-1.71,0,*55
1506225979.24,64836,13.63,73818.0,-1.11,-1.71,-1.79,0,*56
1506225980.44,64837,13.63,73822.3,-1.11,-1.71,-1.67,0,*58
1506225981.64,64838,13.63,73820.8,-1.11,-1.67,-1.67,0,*50
1506225982.85,64839,13.63,73822.5,-1.07,-1.67,-1.71,0,*51
1506225984.05,64840,13.63,73820.8,-1.07,-1.67,-1.71,0,*5F
1506225985.25,64841,13.63,73818.8,-1.07,-1.67,-1.71,0,*5E
1506225986.47,64842,13.63,73818.8,-1.05,-1.63,-1.63,0,*58
1506225987.68,64843,13.63,73816.3,-1.07,-1.71,-1.67,0,*5C
1506225988.89,64844,13.63,73818.5,-1.07,-1.67,-1.67,0,*5C
1506225990.11,64845,13.63,73814.5,-1.05,-1.67,-1.63,0,*5B
1506225991.3,64846,13.63,73822.3,-1.07,-1.59,-1.67,0,*53
1506225992.5,64847,13.63,73822.3,-1.07,-1.67,-1.59,0,*52
1506225993.7,64848,13.63,73822.0,-1.07,-1.59,-1.67,0,*5D
1506225994.92,64849,13.63,73816.5,-1.05,-1.55,-1.55,0,*53
1506225996.11,64850,13.63,73818.3,-1.07,-1.59,-1.63,0,*50
1506225997.31,64851,13.63,73822.0,-1.07,-1.55,-1.59,0,*54
1506225998.52,64852,13.63,73822.3,-1.05,-1.63,-1.55,0,*5C
1506225999.74,64853,13.63,73816.0,-1.05,-1.63,-1.63,0,*58
1506226000.94,64854,13.63,73822.3,-1.07,-1.59,-1.71,0,*57
1506226002.16,64855,13.63,73818.8,-1.05,-1.55,-1.51,0,*5A
1506226003.38,64856,13.63,73818.8,-1.05,-1.63,-1.55,0,*58
1506226004.6,64857,13.63,73816.5,-1.05,-1.63,-1.55,0,*59
1506226005.81,64858,13.63,73820.3,-1.05,-1.63,-1.63,0,*53
1506226007.03,64859,13.63,73822.5,-1.05,-1.63,-1.55,0,*57
1506226008.25,64860,13.63,73822.0,-1.05,-1.63,-1.63,0,*58
1506226009.47,64861,13.63,73820.8,-1.05,-1.55,-1.63,0,*5C
1506226010.67,64862,13.63,73816.8,-1.07,-1.67,-1.59,0,*55
1506226011.88,64863,13.63,73820.3,-1.05,-1.63,-1.55,0,*5E
1506226013.08,64864,13.63,73820.5,-1.03,-1.55,-1.55,0,*5A
1506226014.27,64865,13.63,73820.8,-1.03,-1.55,-1.55,0,*5B
1506226015.46,64866,13.63,73824.0,-1.03,-1.55,-1.55,0,*58
1506226016.65,64867,13.63,73820.8,-1.03,-1.59,-1.59,0,*59
1506226017.85,64868,13.63,73820.5,-1.03,-1.63,-1.63,0,*56
1506226019.04,64869,13.63,73818.8,-1.03,-1.51,-1.55,0,*53
1506226020.23,64870,13.63,73822.0,-1.03,-1.55,-1.55,0,*5F
1506226021.43,64871,13.63,73822.0,-1.03,-1.55,-1.55,0,*5E
1506226022.62,64872,13.63,73822.0,-1.03,-1.55,-1.51,0,*59
1506226023.81,64873,13.63,73820.0,-1.03,-1.51,-1.55,0,*58
1506226025.06,64874,13.63,73822.5,-1.01,-1.47,-1.51,0,*5E
1506226026.28,64875,13.63,73820.5,-1.01,-1.51,-1.51,0,*58
1506226027.47,64876,13.63,73820.0,-1.03,-1.51,-1.55,0,*5D
1506226028.67,64877,13.63,73820.3,-1.03,-1.55,-1.55,0,*58
1506226029.86,64878,13.63,73820.0,-1.03,-1.55,-1.51,0,*53
1506226031.14,64879,13.63,73822.0,-1.01,-1.47,-1.47,0,*54
1506226032.39,64880,13.63,73824.5,-1.01,-1.47,-1.51,0,*55
1506226033.58,64881,13.63,73822.0,-1.03,-1.55,-1.55,0,*51
1506226034.86,64882,13.63,73818.8,-1.01,-1.47,-1.47,0,*50
1506226036.05,64883,13.63,73824.3,-1.03,-1.55,-1.55,0,*53
1506226037.27,64884,13.63,73822.3,-1.03,-1.55,-1.47,0,*57
1506226038.52,64885,13.63,73824.3,-1.01,-1.47,-1.51,0,*50
1506226039.77,64886,13.63,73822.3,-1.01,-1.47,-1.55,0,*57
1506226040.99,64887,13.63,73822.3,-1.01,-1.51,-1.51,0,*55
1506226042.19,64888,13.63,73822.5,-1.03,-1.55,-1.51,0,*5C
1506226043.41,64889,13.63,73820.0,-1.01,-1.51,-1.51,0,*5B
1506226044.65,64890,13.63,73822.3,-1.01,-1.51,-1.47,0,*54
1506226045.87,64891,13.63,73822.5,-0.99,-1.47,-1.51,0,*65
1506226047.06,64892,13.63,73820.0,-0.99,-1.51,-1.51,0,*61
1506226048.27,64893,13.63,73816.5,-0.99,-1.51,-1.47,0,*67
1506226049.48,64894,13.63,73818.8,-0.99,-1.51,-1.47,0,*60
1506226050.73,64895,13.63,73822.5,-0.99,-1.47,-1.47,0,*66
1506226052.0,64896,13.63,73822.0,-0.97,-1.47,-1.47,0,*6B
1506226053.18,64897,13.63,73818.5,-0.99,-1.51,-1.51,0,*64
1506226054.4,64898,13.63,73824.0,-0.99,-1.51,-1.47,0,*6C
1506226055.62,64899,13.63,73816.5,-0.99,-1.47,-1.51,0,*6D
1506226056.83,64900,13.63,73820.8,-0.99,-1.51,-1.47,0,*6C
1506226058.07,64901,13.63,73822.0,-0.99,-1.47,-1.47,0,*6A
1506226059.34,64902,13.63,73818.5,-0.97,-1.43,-1.43,0,*67
1506226060.61,64903,13.63,73820.5,-0.97,-1.47,-1.47,0,*66
1506226061.88,64904,13.63,73822.5,-0.97,-1.47,-1.43,0,*65
1506226063.12,64905,13.63,73822.0,-0.99,-1.47,-1.47,0,*6E
1506226064.39,64906,13.63,73822.3,-0.97,-1.47,-1.43,0,*67
1506226065.64,64907,13.63,73820.5,-0.99,-1.47,-1.47,0,*6C
1506226066.86,64908,13.63,73824.3,-0.99,-1.43,-1.51,0,*60
1506226068.12,64909,13.63,73818.8,-0.97,-1.43,-1.43,0,*6C
1506226069.39,64910,13.63,73820.8,-0.97,-1.43,-1.47,0,*60
1506226070.58,64911,13.63,73820.3,-0.99,-1.51,-1.51,0,*6B
1506226071.85,64912,13.63,73826.0,-0.97,-1.43,-1.43,0,*66
1506226073.12,64913,13.63,73822.0,-0.97,-1.43,-1.47,0,*63
1506226074.38,64914,13.63,73822.3,-0.97,-1.35,-1.43,0,*61
1506226075.63,64915,13.63,73816.8,-0.95,-1.43,-1.39,0,*6E
1506226076.87,64916,13.63,73820.0,-0.95,-1.39,-1.43,0,*6D
1506226078.14,64917,13.63,73822.5,-0.97,-1.47,-1.47,0,*63
1506226079.41,64918,13.63,73820.5,-0.97,-1.47,-1.43,0,*68
1506226080.65,64919,13.63,73822.5,-0.95,-1.43,-1.39,0,*62
1506226081.9,64920,13.63,73820.5,-0.95,-1.39,-1.39,0,*65
1506226083.15,64921,13.63,73822.3,-0.95,-1.43,-1.39,0,*69
1506226084.42,64922,13.63,73820.0,-0.93,-1.39,-1.39,0,*61
1506226085.67,64923,13.63,73820.0,-0.95,-1.43,-1.39,0,*6B
1506226086.91,64924,13.63,73820.0,-0.95,-1.39,-1.39,0,*61
1506226088.16,64925,13.63,73820.0,-0.95,-1.43,-1.43,0,*60
1506226089.43,64926,13.63,73818.5,-0.93,-1.39,-1.39,0,*65
1506226090.68,64927,13.63,73822.8,-0.95,-1.39,-1.43,0,*6F
1506226091.92,64928,13.63,73822.8,-0.95,-1.43,-1.43,0,*6D
1506226093.19,64929,13.63,73820.5,-0.93,-1.39,-1.43,0,*67
1506226094.44,64930,13.63,73820.8,-0.95,-1.43,-1.43,0,*64
1506226095.71,64931,13.63,73822.5,-0.93,-1.39,-1.43,0,*6E
1506226096.94,64932,13.63,73820.3,-0.93,-1.51,-1.39,0,*6E
1506226098.21,64933,13.63,73824.3,-0.93,-1.43,-1.39,0,*6C
1506226099.46,64934,13.63,73826.3,-0.95,-1.39,-1.43,0,*6D
1506226100.71,64935,13.63,73826.0,-0.95,-1.39,-1.39,0,*61
1506226101.97,64936,13.63,73822.3,-0.93,-1.43,-1.43,0,*64
1506226103.24,64937,13.63,73820.3,-0.93,-1.43,-1.43,0,*65
1506226104.51,64938,13.63,73820.0,-0.93,-1.43,-1.39,0,*67
1506226105.75,64939,13.63,73820.0,-0.93,-1.51,-1.43,0,*68
1506226107.02,64940,13.63,73820.0,-0.93,-1.39,-1.43,0,*68
1506226108.29,64941,13.63,73822.3,-0.93,-1.39,-1.43,0,*69
1506226109.52,64942,13.63,73820.8,-0.93,-1.51,-1.43,0,*64
1506226110.79,64943,13.63,73820.3,-0.93,-1.43,-1.43,0,*66
1506226112.06,64944,13.63,73822.3,-0.93,-1.39,-1.39,0,*61
1506226113.33,64945,13.63,73822.0,-0.93,-1.39,-1.39,0,*60
1506226114.6,64946,13.63,73820.0,-0.93,-1.39,-1.43,0,*6E